Weather reports worldwide

Advertisment
Carlisle, United Kingdom (3220): temperature & dewpoint: 04.12.2018 14:00:00 - 10.12.2018 14:00:00 (GMT)Carlisle, United Kingdom (3220): temperature -100cm: 04.12.2018 14:00:00 - 10.12.2018 14:00:00 (GMT)Carlisle, United Kingdom (3220): reduced air pressure: 04.12.2018 14:00:00 - 10.12.2018 14:00:00 (GMT)Carlisle, United Kingdom (3220): visibility: 04.12.2018 14:00:00 - 10.12.2018 14:00:00 (GMT)Carlisle, United Kingdom (3220): precipitation: 04.12.2018 14:00:00 - 10.12.2018 14:00:00 (GMT)
Date & Time tt [°C] td [°C] tt -100cm [°C] ppp [hPa] vv [km] rr [mm]
10.12.2018 14:00:00 4,9 3,5 - 1026,8 25 0,0
10.12.2018 13:00:00 4,4 2,8 - 1026,6 30 0,0
10.12.2018 12:00:00 3,9 2,9 - 1026,6 24 0,0
10.12.2018 11:00:00 2,8 2,4 - 1026,7 24 0,0
10.12.2018 10:00:00 2,1 1,8 - 1026,0 11 0,0
10.12.2018 09:00:00 1,6 1,2 8,4 1025,4 24 0,0
10.12.2018 08:00:00 2,5 2,2 - 1024,6 30 0,0
10.12.2018 07:00:00 2,2 1,5 - 1024,2 27 0,0
10.12.2018 06:00:00 2,6 1,6 - 1023,7 27 0,2
10.12.2018 05:00:00 5,2 4,5 - 1023,2 40 0,0
10.12.2018 04:00:00 4,3 3,7 - 1022,8 27 0,0
10.12.2018 03:00:00 2,4 1,7 - 1022,6 30 0,0
10.12.2018 02:00:00 2,9 1,9 - 1021,8 28 0,0
10.12.2018 01:00:00 3,4 2,2 - 1021,0 30 0,0
10.12.2018 00:00:00 4,0 2,8 - 1020,6 35 0,0
09.12.2018 23:00:00 3,4 1,8 - 1020,1 40 0,0
09.12.2018 22:00:00 3,3 1,4 - 1019,4 35 0,0
09.12.2018 21:00:00 4,1 2,0 - 1018,7 45 0,0
09.12.2018 20:00:00 3,7 2,0 - 1018,0 40 0,0
09.12.2018 19:00:00 4,0 2,2 - 1017,4 40 0,0
09.12.2018 18:00:00 4,2 2,0 - 1016,2 40 0,0
09.12.2018 17:00:00 4,7 1,7 - 1015,2 45 0,0
09.12.2018 16:00:00 5,4 2,1 - 1014,1 2,1 0,0
09.12.2018 15:00:00 6,2 2,8 - 1012,9 50 0,0
09.12.2018 14:00:00 6,8 3,3 - 1011,8 45 0,0
09.12.2018 13:00:00 7,1 3,9 - 1010,4 50 0,0
09.12.2018 12:00:00 6,3 4,0 - 1009,4 50 0,0
09.12.2018 11:00:00 6,3 4,7 - 1008,5 50 0,0
09.12.2018 10:00:00 4,3 3,4 - 1006,6 50 0,0
09.12.2018 09:00:00 2,9 2,7 8,4 1005,0 50 0,0
09.12.2018 08:00:00 2,2 1,5 - 1002,9 25 0,0
09.12.2018 07:00:00 3,7 2,9 - 1000,9 35 0,0
09.12.2018 06:00:00 3,9 3,6 - 998,8 50 0,0
09.12.2018 05:00:00 3,6 3,1 - 997,1 35 0,0
09.12.2018 04:00:00 4,5 4,0 - 995,3 40 0,0
09.12.2018 03:00:00 5,5 5,2 - 993,9 45 0,0
09.12.2018 02:00:00 5,6 5,2 - 992,7 35 0,0
09.12.2018 01:00:00 6,3 5,8 - 991,8 45 0,0
09.12.2018 00:00:00 6,8 6,1 - 991,3 45 0,0
08.12.2018 23:00:00 7,0 6,2 - 990,6 45 0,6
08.12.2018 22:00:00 7,4 6,3 - 990,1 16 1,2
08.12.2018 21:00:00 8,0 6,7 - 989,0 5 1,0
08.12.2018 20:00:00 8,5 6,1 - 988,5 30 0,0
08.12.2018 19:00:00 8,4 6,5 - 988,6 22 0,0
08.12.2018 18:00:00 7,9 6,6 - 988,8 18 0,2
08.12.2018 17:00:00 7,0 6,1 - 989,0 25 0,0
08.12.2018 16:00:00 6,0 5,4 - 989,4 30 0,4
08.12.2018 15:00:00 6,2 5,4 - 990,4 45 0,2
08.12.2018 14:00:00 6,2 4,8 - 992,3 10 1,6
08.12.2018 13:00:00 8,3 5,5 - 992,9 7 0,0
08.12.2018 12:00:00 8,2 6,4 - 993,6 19 0,0
08.12.2018 11:00:00 8,6 5,8 - 994,5 30 0,0
08.12.2018 10:00:00 8,3 5,6 - 994,9 26 0,0
08.12.2018 09:00:00 7,8 4,4 8,4 994,5 30 0,2
08.12.2018 08:00:00 8,0 5,8 - 993,6 12 0,0
08.12.2018 07:00:00 8,0 6,1 - 992,4 30 0,0
08.12.2018 06:00:00 8,3 6,2 - 991,6 35 0,0
08.12.2018 05:00:00 8,3 6,2 - 990,8 35 0,0
08.12.2018 04:00:00 8,3 5,9 - 990,4 35 0,0
08.12.2018 03:00:00 8,5 6,1 - 989,9 30 0,0
08.12.2018 02:00:00 8,4 6,6 - 989,0 30 0,0
08.12.2018 01:00:00 9,3 6,2 - 988,0 25 0,0
08.12.2018 00:00:00 9,2 5,7 - 988,0 26 0,0
07.12.2018 23:00:00 9,0 5,4 - 988,0 27 0,0
07.12.2018 22:00:00 8,7 4,9 - 988,6 29 0,0
07.12.2018 21:00:00 8,6 4,2 - 989,4 27 0,0
07.12.2018 20:00:00 8,6 3,9 - 990,1 24 0,0
07.12.2018 19:00:00 8,1 3,8 - 990,3 25 0,0
07.12.2018 18:00:00 7,4 3,5 - 990,8 27 0,0
07.12.2018 17:00:00 7,3 2,8 - 991,4 30 0,2
07.12.2018 16:00:00 6,5 2,6 - 991,5 30 0,0
07.12.2018 15:00:00 6,6 2,1 - 991,6 35 0,0
07.12.2018 14:00:00 7,1 2,4 - 991,5 30 0,0
07.12.2018 13:00:00 7,6 2,5 - 992,1 30 0,0
07.12.2018 12:00:00 7,6 3,0 - 992,4 30 0,0
07.12.2018 11:00:00 7,6 3,1 - 992,2 29 0,0
07.12.2018 10:00:00 7,7 2,9 - 992,3 30 0,0
07.12.2018 09:00:00 7,8 3,5 8,2 992,7 27 0,0
07.12.2018 08:00:00 8,4 3,8 - 992,9 27 0,0
07.12.2018 07:00:00 9,0 5,3 - 992,4 22 0,0
07.12.2018 06:00:00 11,2 8,9 - 991,7 30 1,6
07.12.2018 05:00:00 12,3 10,9 - 992,1 5 2,6
07.12.2018 04:00:00 12,4 11,0 - 993,2 10 1,6
07.12.2018 03:00:00 10,6 9,7 - 995,2 3,5 2,0
07.12.2018 02:00:00 9,3 8,7 - 997,1 2,4 0,0
07.12.2018 01:00:00 8,8 7,4 - 999,8 7 0,0
07.12.2018 00:00:00 8,9 6,2 - 1001,1 27 0,0
06.12.2018 23:00:00 9,0 5,5 - 1003,3 29 0,0
06.12.2018 22:00:00 9,2 6,2 - 1003,5 27 0,0
06.12.2018 21:00:00 8,7 6,8 - 1004,5 23 0,0
06.12.2018 20:00:00 7,8 6,3 - 1005,4 19 0,0
06.12.2018 19:00:00 8,8 6,5 - 1005,5 23 0,0
06.12.2018 18:00:00 9,3 7,4 - 1005,9 22 0,0
06.12.2018 17:00:00 10,2 9,1 - 1005,1 23 0,0
06.12.2018 16:00:00 11,0 10,1 - 1005,0 30 0,0
06.12.2018 15:00:00 11,9 10,9 - 1004,5 30 0,0
06.12.2018 14:00:00 12,0 11,1 - 1003,6 40 0,4
06.12.2018 13:00:00 11,8 11,2 - 1003,6 5 0,8
06.12.2018 12:00:00 11,5 10,7 - 1004,0 14 0,6
06.12.2018 11:00:00 11,2 10,1 - 1004,3 11 0,0
06.12.2018 10:00:00 10,5 9,5 - 1004,8 16 0,4
06.12.2018 09:00:00 11,1 9,9 8,5 1004,9 25 0,2
06.12.2018 08:00:00 11,0 10,5 - 1005,1 19 0,2
06.12.2018 07:00:00 8,4 8,1 - 1006,1 13 0,0
06.12.2018 06:00:00 6,7 6,6 - 1006,5 4,8 0,0
06.12.2018 05:00:00 5,9 5,8 - 1007,5 2,1 0,0
06.12.2018 04:00:00 5,4 5,3 - 1008,5 1,5 0,2
06.12.2018 03:00:00 5,3 5,2 - 1008,6 1,3 0,0
06.12.2018 02:00:00 5,1 5,0 - 1008,7 2,4 0,0
06.12.2018 01:00:00 5,1 5,0 - 1008,7 2,5 0,0
06.12.2018 00:00:00 5,1 4,9 - 1008,3 2,4 0,0
05.12.2018 23:00:00 5,2 5,0 - 1007,8 1,7 0,0
05.12.2018 22:00:00 5,3 5,0 - 1007,3 2,5 0,0
05.12.2018 21:00:00 5,3 4,9 - 1006,8 4,0 0,0
05.12.2018 20:00:00 5,6 5,1 - 1007,8 4,1 0,0
05.12.2018 19:00:00 5,6 4,9 - 1006,8 17 0,0
05.12.2018 18:00:00 5,5 4,9 - 1006,4 16 0,0
05.12.2018 17:00:00 5,3 4,8 - 1006,4 7 0,2
05.12.2018 16:00:00 5,1 4,5 - 1006,3 9 0,0
05.12.2018 15:00:00 5,0 4,3 - 1006,5 18 0,6
05.12.2018 14:00:00 4,8 4,1 - 1007,2 12 0,6
05.12.2018 13:00:00 4,3 3,6 - 1008,1 11 0,8
05.12.2018 12:00:00 3,9 3,1 - 1009,7 6 0,6
05.12.2018 11:00:00 3,5 2,7 - 1011,2 9 0,8
05.12.2018 10:00:00 3,4 2,6 - 1012,2 11 0,4
05.12.2018 09:00:00 2,8 2,0 8,7 1013,3 9 0,8
05.12.2018 08:00:00 2,7 1,8 - 1014,4 6 0,2
05.12.2018 07:00:00 2,3 1,0 - 1014,8 26 0,0
05.12.2018 06:00:00 1,8 0,8 - 1015,6 30 0,0
05.12.2018 05:00:00 1,3 0,5 - 1016,9 30 0,0
05.12.2018 04:00:00 0,9 0,3 - 1017,5 29 0,0
05.12.2018 03:00:00 1,1 0,7 - 1018,5 21 0,0
05.12.2018 02:00:00 1,0 0,8 - 1019,1 14 0,0
05.12.2018 01:00:00 0,7 0,5 - 1019,7 8 0,0
05.12.2018 00:00:00 0,1 -0,1 - 1019,9 4,4 0,0
04.12.2018 23:00:00 0,3 0,0 - 1020,6 3,8 0,0
04.12.2018 22:00:00 0,7 0,5 - 1020,7 5 0,0
04.12.2018 21:00:00 0,7 0,5 - 1020,9 4,4 0,0
04.12.2018 20:00:00 1,5 1,2 - 1020,9 7 0,0
04.12.2018 19:00:00 1,3 1,0 - 1021,2 5 0,0
04.12.2018 18:00:00 0,9 0,7 - 1020,8 6 0,0
04.12.2018 17:00:00 1,5 1,2 - 1020,8 11 0,0
04.12.2018 16:00:00 1,5 1,2 - 1020,2 9 0,0
04.12.2018 15:00:00 1,9 1,5 - 1020,0 10 0,0
04.12.2018 14:00:00 1,8 1,6 - 1019,8 18 0,0

tt = temperature
td = dewpoint
tt -100cm = temperature -100cm
ppp = reduced air pressure
vv = visibility
rr = precipitation

Next stations